{"data":{"norad_id":60580,"epoch":"2026-05-25T03:58:05.471040Z","epoch_age_seconds":50863,"freshness":"FRESH","line1":"1 60580U 24149DS  26145.16534110  .00007249  00000+0  49189-3 0  9993","line2":"2 60580  97.6635 225.7441 0010174  72.6450 287.5889 15.06675150 96928","mean_motion":15.0667515,"eccentricity":0.0010174,"inclination_deg":97.6635,"raan_deg":225.7441,"arg_perigee_deg":72.645,"mean_anomaly_deg":287.5889,"bstar":0.00049189,"rev_number":9692,"period_min":95.574683102725,"perigee_km":539.32339937071,"apogee_km":553.41338294063,"semimajor_km":6924.5053911557,"source":"CELESTRAK","updated_at":"2026-05-25T13:38:02.157929Z"}}